{"data":{"norad_id":49754,"epoch":"2026-09-19T18:37:47.669952Z","epoch_age_seconds":107422,"freshness":"FRESH","line1":"1 49754U 21115AG  26262.77624618  .00001597  00000+0  56674-4 0  9991","line2":"2 49754  53.1603 333.3992 0001149  81.3449 278.7684 15.35398477265170","mean_motion":15.35398477,"eccentricity":0.0001149,"inclination_deg":53.1603,"raan_deg":333.3992,"arg_perigee_deg":81.3449,"mean_anomaly_deg":278.7684,"bstar":5.6674e-5,"rev_number":26517,"period_min":93.786728433755,"perigee_km":458.95149276767,"apogee_km":460.52283625068,"semimajor_km":6837.8741645091995,"source":"CELESTRAK","updated_at":"2026-09-20T09:00:39.409275Z"}}